Change the Weather History Date:

Tuesday, February 26, 2013

  Actual Average Record
Temperature  
Mean Temperature 42 °F 49 °F  
Max Temperature 47 °F 59 °F 85 °F (1917)
Min Temperature 37 °F 39 °F 20 °F (1891)
Degree Days  
Heating Degree Days 23 16  
Month to date heating degree days 491 496  
Since 1 July heating degree days 2165 2354  
Cooling Degree Days 0 0  
Month to date cooling degree days 0 0  
Year to date cooling degree days 5 1  
Moisture  
Dew Point 36 °F    
Average Humidity 79    
Maximum Humidity 100    
Minimum Humidity 58    
Precipitation  
Precipitation 0.00 in 0.17 in 1.70 in (1923)
Month to date precipitation 4.38 3.72  
Year to date precipitation 11.31 7.48  
Snow  
Snow 0.00 in 0.00 in 6.10 in (1982)
Month to date snowfall T 0.6  
Since 1 July snowfall 2.1 3.1  
Snow Depth 0.00 in    
Sea Level Pressure  
Sea Level Pressure 29.60 in    
Wind  
Wind Speed 15 mph (WSW)    
Max Wind Speed 29 mph    
Max Gust Speed 39 mph    
Visibility 10 miles    
Events      
T = Trace of Precipitation, MM = Missing Value Source: NWS Daily Summary

Daily Weather History Graph

Daily Weather History Graph

Search for Another Location

Airport or City:

Trip Planner

Search our weather history database for the weather conditions in past years. The results will help you decide how hot, cold, wet, or windy it might be!

Date:

Astronomy

Feb. 26, 2013 Rise Set
Actual Time 6:39 AM CST 6:01 PM CST
Civil Twilight 6:14 AM CST 6:26 PM CST
Nautical Twilight 5:45 AM CST 6:56 PM CST
Astronomical Twilight 5:16 AM CST 7:25 PM CST
Moon 7:12 PM CST (2/26) 6:47 AM CST (2/26)
Length of Visible Light 12h 12m
Length of Day
11h 21m
Full, 99% of the Moon is Illuminated
Feb 26
Full
Mar 4
Last Quarter
Mar 11
New
Mar 19
First Quarter
Mar 27
Full

Hourly Weather History & Observations

Time (CST) Temp. Windchill Dew Point Humidity Pressure Visibility Wind Dir Wind Speed Gust Speed Precip Events Conditions
12:33 AM 46.4 °F 41.5 °F 46.4 °F 100% 29.42 in 2.0 mi SW 10.4 mph - N/A   Overcast
12:42 AM 46.4 °F 39.8 °F 46.4 °F 100% 29.44 in 7.0 mi WSW 16.1 mph 26.5 mph N/A   Overcast
12:53 AM 46.0 °F 38.0 °F 43.0 °F 89% 29.44 in 10.0 mi West 21.9 mph 29.9 mph N/A   Overcast
1:00 AM 46.4 °F 40.1 °F 41.0 °F 81% 29.44 in 10.0 mi West 15.0 mph 27.6 mph N/A   Overcast
1:53 AM 44.1 °F 38.6 °F 39.9 °F 85% 29.44 in 10.0 mi SW 10.4 mph - N/A   Overcast
2:53 AM 44.1 °F 38.6 °F 39.9 °F 85% 29.45 in 10.0 mi SW 10.4 mph - N/A   Overcast
3:53 AM 43.0 °F 36.0 °F 37.9 °F 82% 29.45 in 10.0 mi SW 13.8 mph 20.7 mph N/A   Overcast
4:48 AM 42.8 °F 36.6 °F 37.4 °F 81% 29.46 in 10.0 mi SW 11.5 mph 21.9 mph N/A   Overcast
4:53 AM 42.1 °F 34.9 °F 37.0 °F 82% 29.46 in 10.0 mi SW 13.8 mph - N/A   Overcast
5:53 AM 42.1 °F 33.9 °F 37.0 °F 82% 29.46 in 10.0 mi SW 17.3 mph 25.3 mph N/A   Overcast
6:26 AM 41.0 °F 32.8 °F 37.4 °F 87% 29.47 in 10.0 mi WSW 16.1 mph 25.3 mph N/A   Overcast
6:53 AM 41.0 °F 32.5 °F 36.0 °F 82% 29.48 in 10.0 mi SW 17.3 mph 25.3 mph N/A   Overcast
7:23 AM 39.2 °F 30.2 °F 35.6 °F 87% 29.50 in 10.0 mi WSW 17.3 mph 24.2 mph N/A   Overcast
7:53 AM 39.9 °F 30.5 °F 35.1 °F 83% 29.52 in 10.0 mi WSW 19.6 mph 29.9 mph N/A   Overcast
8:53 AM 39.9 °F 31.1 °F 34.0 °F 79% 29.56 in 10.0 mi WSW 17.3 mph 29.9 mph N/A   Overcast
9:53 AM 41.0 °F 33.5 °F 34.0 °F 76% 29.57 in 10.0 mi WSW 13.8 mph 25.3 mph N/A   Overcast
10:16 AM 42.8 °F 35.1 °F 35.6 °F 76% 29.57 in 10.0 mi WSW 16.1 mph 23.0 mph N/A   Overcast
10:46 AM 42.8 °F 34.5 °F 33.8 °F 70% 29.58 in 10.0 mi West 18.4 mph 25.3 mph N/A   Overcast
10:53 AM 43.0 °F 35.1 °F 34.0 °F 71% 29.60 in 10.0 mi West 17.3 mph 27.6 mph N/A   Overcast
11:01 AM 42.8 °F 33.8 °F 33.8 °F 70% 29.59 in 10.0 mi West 21.9 mph 29.9 mph N/A   Overcast
11:53 AM 45.0 °F 37.6 °F 33.1 °F 63% 29.62 in 10.0 mi West 17.3 mph 32.2 mph N/A   Overcast
12:53 PM 44.1 °F 35.2 °F 30.9 °F 60% 29.65 in 10.0 mi West 23.0 mph 35.7 mph N/A   Overcast
1:53 PM 44.1 °F 37.4 °F 33.1 °F 65% 29.66 in 10.0 mi WSW 13.8 mph 23.0 mph N/A   Overcast
2:53 PM 44.1 °F 37.7 °F 34.0 °F 68% 29.70 in 10.0 mi West 12.7 mph 25.3 mph N/A   Overcast
3:53 PM 44.1 °F 35.4 °F 32.0 °F 63% 29.71 in 10.0 mi West 21.9 mph 31.1 mph N/A   Overcast
4:53 PM 44.1 °F 37.4 °F 34.0 °F 68% 29.74 in 10.0 mi West 13.8 mph 24.2 mph N/A   Overcast
5:53 PM 44.6 °F 37.8 °F 33.8 °F 66% 29.77 in 10.0 mi West 15.0 mph 23.0 mph N/A   Overcast
6:53 PM 43.0 °F 37.2 °F 33.1 °F 68% 29.80 in 10.0 mi West 10.4 mph 19.6 mph N/A   Overcast
7:53 PM 43.0 °F 35.4 °F 33.1 °F 68% 29.83 in 10.0 mi WNW 16.1 mph 23.0 mph N/A   Overcast
8:53 PM 42.1 °F 35.7 °F 32.0 °F 67% 29.85 in 10.0 mi NW 11.5 mph 20.7 mph N/A   Mostly Cloudy
9:53 PM 41.0 °F 34.7 °F 30.9 °F 67% 29.87 in 10.0 mi WNW 10.4 mph - N/A   Clear
10:53 PM 39.0 °F 35.7 °F 30.9 °F 73% 29.89 in 10.0 mi West 4.6 mph - N/A   Clear
11:53 PM 37.9 °F 34.4 °F 30.9 °F 76% 29.90 in 10.0 mi WSW 4.6 mph - N/A   Clear